Theta_e
326 322 323 324 323 323 323 323 322 321 321 320 323 324 326 325 325 326 321 323 322 321 321 322 322 321 323 325 323 324 324 325
325 323 324 324 323 323 323 322 323 320 316 316 322 324 324 323 325 324 323 323 322 320 324 323 323 322 322 323 323 323 324 320
323 324 324 324 324 323 323 323 320 317 317 319 324 326 326 326 324 324 323 323 324 320 321 324 323 322 322 323 323 323 324 319
324 324 324 324 323 323 322 322 320 315 316 321 326 328 327 326 325 325 324 323 325 324 320 321 320 320 321 322 323 323 322 319
324 324 324 324 323 323 323 321 319 316 316 325 327 329 329 328 327 325 325 324 324 325 321 322 322 320 321 322 323 323 323 322
324 324 324 324 323 323 323 321 316 316 317 325 327 329 330 329 327 326 325 325 324 322 320 322 322 320 321 321 323 323 324 323
324 324 324 324 323 323 323 319 315 316 319 326 328 327 327 327 327 327 325 324 322 321 320 322 322 320 321 321 323 323 324 322
324 324 324 323 323 324 321 316 317 316 322 328 329 330 328 327 327 326 325 325 323 323 321 322 322 320 321 321 321 322 324 323
324 324 323 324 324 324 320 316 318 319 324 329 329 329 328 327 328 327 327 326 324 322 322 321 322 321 322 321 321 322 324 324
325 324 324 324 324 323 319 319 319 323 323 328 328 329 327 327 327 327 327 327 324 325 323 322 321 321 321 321 322 322 323 324
325 324 324 324 324 323 319 322 321 325 325 328 327 327 328 327 327 326 326 324 324 323 322 322 321 321 322 321 323 324 325 327
324 324 324 325 325 322 323 325 326 325 328 325 326 329 328 326 327 326 325 322 322 323 322 321 322 322 321 324 323 323 324 326
324 324 325 325 326 324 325 327 327 325 329 330 329 329 326 326 326 326 326 323 322 322 322 323 323 323 324 324 323 324 325 325
324 325 325 326 325 324 327 327 326 326 330 330 329 328 325 324 324 325 326 325 324 322 322 324 324 324 326 325 325 326 323 326
324 325 326 327 325 324 326 324 327 326 330 329 328 328 325 324 324 325 326 324 325 322 322 324 324 324 325 325 324 326 322 326
325 325 327 327 325 323 323 324 327 327 329 328 329 329 326 326 322 325 326 325 324 323 322 324 325 323 324 324 326 326 324 325
325 326 328 327 324 322 322 326 326 327 328 327 329 328 328 327 324 324 323 323 322 322 321 323 325 324 322 324 325 326 325 326
326 327 328 326 324 322 321 325 326 326 326 328 328 328 329 326 325 324 323 322 322 321 320 319 320 321 323 324 325 324 328 330
327 328 327 326 325 322 323 325 325 325 326 328 328 329 330 326 324 324 324 324 323 322 322 322 323 323 324 324 325 327 328 329
327 328 327 325 325 323 322 326 324 324 325 327 328 329 330 327 326 325 325 325 324 324 323 324 324 324 324 324 325 324 327 328
Wind_Speed
28 22 18 15 21 22 21 16 11 12 15 15 13 14 17 16 14 18 15 11 10 10 10 11 12 15 14 15 19 22 23 24
28 21 19 22 25 27 24 18 13 11 13 11 10 11 11 13 16 16 13 11 9 10 10 10 11 10 12 14 17 19 22 21
23 20 20 23 26 28 22 17 12 11 11 7 8 9 9 11 11 13 14 14 12 10 11 14 12 11 12 12 16 20 21 18
26 28 26 27 28 27 21 14 10 11 8 6 9 9 10 11 11 12 15 16 15 11 11 13 13 14 13 13 13 18 21 19
28 31 31 30 28 23 17 12 10 8 5 5 8 11 12 14 13 12 13 15 15 15 14 13 11 13 14 16 14 17 18 20
31 33 30 30 28 23 14 11 8 7 4 6 10 12 15 15 14 12 12 14 14 15 14 12 12 13 13 17 17 17 18 19
34 34 34 33 29 21 14 10 5 4 3 5 10 13 14 13 13 12 11 11 11 13 11 10 11 11 12 16 18 18 18 19
35 37 36 32 25 17 12 8 3 2 2 4 8 13 14 13 11 9 9 10 11 11 8 9 10 8 10 16 21 19 19 19
32 37 34 29 22 15 13 8 5 5 3 6 10 15 15 14 9 10 10 8 8 9 9 10 7 5 7 14 16 20 19 15
29 37 34 28 20 15 12 8 5 4 2 6 11 14 12 14 8 7 9 10 6 10 9 7 5 4 10 14 16 19 17 16
37 36 32 26 18 15 12 8 5 2 4 5 9 8 11 12 7 6 8 6 3 9 8 7 7 7 10 12 17 18 17 18
38 37 32 25 17 14 11 9 5 6 3 3 7 10 13 12 5 6 2 1 6 8 8 9 8 8 11 12 17 19 16 17
41 37 31 20 16 16 12 9 5 6 5 4 8 11 9 7 3 3 2 3 5 10 11 11 11 10 9 10 15 15 15 17
36 33 25 20 16 15 13 10 5 3 5 3 8 7 8 7 4 3 4 5 8 13 13 15 12 12 10 10 11 15 12 19
34 32 27 21 20 17 14 9 7 5 6 5 6 6 7 7 6 5 4 5 10 17 16 15 12 12 10 9 11 14 11 16
31 31 25 21 20 17 12 8 7 10 9 4 2 6 4 6 8 10 2 5 12 17 15 15 10 11 9 8 11 11 12 16
33 29 24 21 19 16 11 10 9 11 9 4 2 6 6 6 8 9 5 9 11 16 14 15 10 11 9 8 10 10 13 16
31 29 25 19 17 14 12 10 11 10 5 5 4 3 7 6 6 7 8 8 9 13 13 12 12 12 11 9 9 10 10 16
33 30 24 18 18 16 15 12 13 11 6 7 4 0 4 5 6 6 6 7 9 11 12 13 15 16 12 10 12 14 15 14
32 29 25 22 22 18 17 15 12 10 9 9 6 3 2 4 7 5 4 7 11 12 16 16 18 17 14 14 16 14 16 17
Wind_Direction
199 213 214 217 215 218 217 228 238 274 300 303 303 290 285 285 290 297 293 290 296 276 272 255 253 255 256 241 228 222 222 224
206 206 209 213 217 208 205 215 249 280 305 306 317 309 301 296 288 290 276 275 287 277 265 261 255 255 249 240 233 222 218 222
207 207 209 220 216 206 213 232 260 298 307 306 325 344 318 311 292 279 278 283 273 283 271 261 262 263 256 243 230 222 217 216
205 204 210 211 208 215 221 234 261 301 323 324 324 322 320 315 304 283 276 278 274 276 282 268 259 267 253 241 225 216 219 216
217 217 219 224 219 216 220 237 264 308 328 319 336 337 325 314 309 294 282 279 271 271 280 271 264 269 251 234 221 219 221 213
227 218 221 215 217 211 220 239 275 312 317 328 333 322 319 311 301 294 287 276 271 266 265 261 266 267 248 230 220 213 212 209
224 217 219 216 216 212 223 232 264 310 308 321 321 326 319 308 291 289 281 273 271 264 248 256 268 266 246 227 217 209 204 203
220 208 209 213 209 214 220 214 231 203 204 286 302 324 329 325 305 298 292 283 263 256 242 257 265 262 246 211 207 207 201 206
213 204 204 204 207 210 203 204 185 177 212 285 306 314 327 331 305 293 289 297 268 240 229 241 256 248 214 193 198 199 198 204
197 193 200 208 204 198 196 190 172 155 269 273 305 314 329 335 307 307 306 294 254 234 220 228 214 198 180 184 191 194 201 197
183 192 200 199 195 195 192 180 164 159 208 292 317 323 335 337 318 305 316 294 243 183 202 196 183 174 175 180 182 189 195 189
189 193 195 189 191 186 177 179 168 207 222 304 333 333 336 334 320 318 340 356 159 176 173 166 164 161 172 187 195 189 195 195
192 194 190 184 186 180 177 178 204 226 243 331 341 334 346 348 348 0 30 145 160 162 153 149 154 158 160 171 176 187 194 192
189 188 183 179 178 174 178 185 206 230 189 265 320 332 5 6 355 325 351 187 177 166 163 160 153 155 150 162 185 182 194 189
186 180 178 177 177 177 181 199 196 219 198 234 317 334 11 15 7 348 3 154 170 173 174 171 151 156 152 164 172 179 184 180
181 179 177 178 177 181 185 177 195 182 190 261 321 359 356 15 24 7 17 146 167 174 179 172 164 170 168 174 174 185 179 187
179 178 180 176 178 184 184 176 189 181 192 267 83 18 25 20 18 23 78 132 150 174 176 178 164 164 176 181 185 180 178 178
176 179 179 178 181 181 185 186 187 187 192 171 105 51 30 32 25 45 93 123 153 171 180 180 178 170 174 174 176 168 175 175
178 179 178 180 181 179 179 188 186 183 185 174 147 155 21 52 45 71 102 96 141 159 163 159 159 165 162 160 159 153 164 161
179 178 179 182 184 181 182 178 187 191 186 170 157 166 33 61 53 63 116 103 126 136 152 149 153 160 161 154 154 155 156 158